|
NORAD ID: 36089 Int'l Code: 2009-061B
Perigee: 678.3 km
Apogee: 794.5 km
Inclination: 98.2 °
Period: 99.4 minutes
Semi major axis: 7107 km
Launch date: November 12, 2009
Source: People's Republic of China (PRC)
Note: This is a ROCKET BODY
Two Line Element Set (TLE):
1 36089U 09061B 13137.14493855 .00000282 00000-0 83237-4 0 468
2 36089 098.1540 179.3493 0081803 315.2420 110.3747 14.48897215185598
Source: AFSPC
NASA's NSSDC Master Catalog entry for CZ-2C R/B
|